FW0303 Weather Reports


time (UTC)temp
C
wind
direction
speed
KPH
gust
KPH
rain 1hr
cm
rain 24hr
cm
rain mn
cm
humidity
%
barometer
mb
20260503220020 15 289 0.0 0.0 0.00 0.00 0.00 33 1011.3
20260503214520 15 191 0.0 0.0 0.00 0.00 0.00 30 1011.3
20260503213020 16 217 0.0 0.0 0.00 0.00 0.00 31 1011.2
20260503211525 16 227 0.0 0.0 0.00 0.00 0.00 30 1011.2
20260503210016 15 269 0.0 0.0 0.00 0.00 0.00 34 1011.4
20260503204514 15 28 0.0 0.0 0.00 0.00 0.00 31 1011.2
20260503203013 15 296 0.0 0.0 0.00 0.00 0.00 34 1011.3
20260503201512 15 12 0.0 0.0 0.00 0.00 0.00 32 1011.1
20260503200011 15 291 0.0 0.0 0.00 0.00 0.00 30 1011.3
20260503194511 15 278 0.0 0.0 0.00 0.00 0.00 29 1011.3
20260503193011 15 259 0.0 0.0 0.00 0.00 0.00 33 1011.5
20260503191509 15 355 0.0 0.0 0.00 0.00 0.00 33 1011.5
20260503190022 15 13 0.0 0.0 0.00 0.00 0.00 36 1011.5
20260503184508 14 315 0.0 0.0 0.00 0.00 0.00 34 1011.7
20260503183008 13 90 0.0 0.0 0.00 0.00 0.00 32 1012.0
20260503181502 13 341 0.0 0.0 0.00 0.00 0.00 35 1011.9
20260503174559 12 227 0.0 0.0 0.00 0.00 0.00 38 1012.2
20260503173114 12 232 0.0 0.0 0.00 0.00 0.00 40 1012.3
20260503171556 12 284 0.0 0.0 0.00 0.00 0.00 42 1012.5
20260503110117 6 250 0.0 3.2 0.00 0.00 0.00 65 1012.5
20260503081545 5 221 0.0 3.2 0.00 0.00 0.00 69 1010.4
20260503071533 6 236 0.0 3.2 0.00 0.00 0.00 70 1010.4
20260503054525 7 236 0.0 3.2 0.00 0.00 0.00 63 1010.7
20260503053021 7 237 0.0 4.8 0.00 0.00 0.00 62 1010.8
20260503051518 7 215 0.0 3.2 0.00 0.00 0.00 64 1010.8
20260503050018 7 215 0.0 0.0 0.00 0.00 0.00 68 1010.9
20260503044514 7 215 0.0 1.6 0.00 0.00 0.00 68 1011.1
20260503043012 7 215 0.0 0.0 0.00 0.00 0.00 71 1011.2
20260503041516 7 215 0.0 0.0 0.00 0.00 0.00 72 1011.2
20260503040008 7 215 0.0 0.0 0.00 0.00 0.00 73 1011.3
20260503034508 7 215 0.0 0.0 0.00 0.00 0.00 73 1011.3
20260503033008 7 215 0.0 0.0 0.00 0.00 0.00 73 1011.2
20260503031507 7 215 0.0 0.0 0.00 0.00 0.00 75 1011.2
20260503030006 7 215 0.0 0.0 0.00 0.00 0.00 72 1011.2
20260503024506 8 215 0.0 0.0 0.00 0.00 0.00 72 1011.4
20260503023005 8 215 0.0 0.0 0.00 0.00 0.00 72 1011.5
20260503021505 8 215 0.0 0.0 0.00 0.00 0.00 70 1011.5
20260503020005 9 215 0.0 0.0 0.00 0.00 0.00 69 1011.3
20260503014503 9 215 0.0 0.0 0.00 0.00 0.00 65 1011.5
20260503013003 10 215 0.0 0.0 0.00 0.00 0.00 65 1011.2
20260503011503 10 215 0.0 0.0 0.00 0.00 0.00 63 1011.5
20260503010003 10 215 0.0 0.0 0.00 0.00 0.00 61 1011.1
20260503004510 10 215 0.0 0.0 0.00 0.00 0.00 61 1010.8
20260503003001 11 215 0.0 0.0 0.00 0.00 0.00 65 1010.7
20260503001502 11 151 0.0 0.0 0.00 0.00 0.00 62 1010.6
20260502234600 12 151 0.0 0.0 0.00 0.00 0.00 55 1010.4
20260502233103 12 151 0.0 0.0 0.00 0.00 0.00 55 1010.4
20260502231559 13 151 0.0 0.0 0.00 0.00 0.00 54 1010.5
20260502230058 13 5 0.0 0.0 0.00 0.00 0.00 46 1010.3
20260502224609 13 5 0.0 0.0 0.00 0.00 0.00 43 1010.3
20260502223058 14 81 0.0 0.0 0.00 0.00 0.00 42 1010.2
20260502221557 15 276 0.0 0.0 0.00 0.00 0.00 39 1010.0